This demonstration page uses our WeatherBlox Daily Observations layout. Learn more.

39.29038, -76.61219

Hourly Observations for May 20, 2019

Temp ( °F °C ) Dew Point ( °F °C ) Humidity (%) Winds ( mph kmh ) Pressure ( in mb ) Visibility ( mi km ) Precip ( " mm )
12:54 am 00:54 undefined 78 25.6 67 19.4 69 69 undefined N/A 29.89 1012 N/A 0 0
1:54 am 01:54 undefined 77 25 66 18.9 69 69 undefined N/A 29.88 1012 N/A 0 0
2:54 am 02:54 undefined 77 25 64 17.8 64 64 undefined N/A 29.86 1011 N/A 0 0
3:54 am 03:54 undefined 78 25.6 62 16.7 58 58 undefined N/A 29.85 1011 N/A 0 0
4:54 am 04:54 undefined 76 24.4 62 16.7 62 62 undefined N/A 29.86 1011 N/A 0 0
5:54 am 05:54 undefined 76 24.4 62 16.7 62 62 undefined N/A 29.87 1012 N/A 0 0
6:54 am 06:54 undefined 75 23.9 62 16.7 64 64 undefined N/A 29.88 1012 N/A 0 0
7:54 am 07:54 undefined 78 25.6 63 17.2 60 60 undefined N/A 29.88 1012 N/A 0 0
8:54 am 08:54 undefined 80 26.7 64 17.8 58 58 undefined N/A 29.88 1012 N/A 0 0
9:54 am 09:54 undefined 83 28.3 64 17.8 53 53 undefined N/A 29.87 1011 N/A 0 0
10:54 am 10:54 undefined 87 30.6 63 17.2 45 45 undefined N/A 29.85 1011 N/A 0 0
11:54 am 11:54 undefined 87 30.6 63 17.2 45 45 undefined N/A 29.85 1011 N/A 0 0
12:54 pm 12:54 undefined 89 31.7 62 16.7 41 41 undefined N/A 29.83 1010 N/A 0 0
1:54 pm 13:54 undefined 88 31.1 61 16.1 40 40 undefined N/A 29.8 1009 N/A 0 0
2:54 pm 14:54 undefined 89 31.7 61 16.1 39 39 undefined N/A 29.79 1009 N/A 0 0
3:54 pm 15:54 undefined 88 31.1 61 16.1 40 40 undefined N/A 29.77 1008 N/A 0 0
4:54 pm 16:54 undefined 89 31.7 62 16.7 41 41 undefined N/A 29.75 1008 N/A 0 0
5:54 pm 17:54 undefined 78 25.6 66 18.9 67 67 undefined N/A 29.78 1008 N/A 0.03 0.762
6:54 pm 18:54 undefined 83 28.3 65 18.3 55 55 undefined N/A 29.76 1008 N/A 0 0
7:54 pm 19:54 undefined 84 28.9 53 11.7 34 34 undefined N/A 29.78 1009 N/A 0 0
8:54 pm 20:54 undefined 81 27.2 51 10.6 35 35 undefined N/A 29.8 1009 N/A 0 0
9:54 pm 21:54 undefined 79 26.1 50 10 36 36 undefined N/A 29.83 1010 N/A 0 0
10:54 pm 22:54 undefined 78 25.6 50 10 37 37 undefined N/A 29.85 1011 N/A 0 0
11:54 pm 23:54 undefined 76 24.4 51 10.6 42 42 undefined N/A 29.87 1011 N/A 0 0

Powered by AerisWeather